.
WxDataArchive / Data Records for 2007-12-11
2007-12-10 December 2007 2007-12-12

Data Records for Tuesday, 11 December 2007

Time	Temp	Chill	HIndex	Humid	Dewpt	 Wind 	HiWind	WindDir	Rain 	Barom 
-----	----	-----	------	-----	-----	------	------	-------	-----	----- 
00:00	30.3	30.3	30.3	95	29.0	0	0	---	0.00	30.284 
00:05	30.4	30.4	30.4	95	29.1	0	0	---	0.00	30.282 
00:10	30.4	30.4	30.4	95	29.1	0	0	---	0.00	30.279 
00:15	30.6	30.6	30.6	95	29.3	0	0	---	0.00	30.279 
00:20	30.6	30.6	30.6	95	29.3	0	0	---	0.00	30.270 
00:25	30.6	30.6	30.6	95	29.3	0	0	---	0.00	30.281 
00:30	30.7	30.7	30.7	95	29.4	0	0	---	0.00	30.283 
00:35	30.7	30.7	30.7	95	29.4	0	0	---	0.00	30.282 
00:40	30.7	30.7	30.7	95	29.4	0	0	---	0.00	30.280 
00:45	30.7	30.7	30.7	95	29.4	0	0	---	0.00	30.276 
00:50	30.9	30.9	30.9	95	29.6	0	0	---	0.00	30.278 
00:55	30.9	30.9	30.9	95	29.6	0	0	---	0.00	30.281 
01:00	30.9	30.9	30.9	95	29.6	0	0	---	0.00	30.267 
01:05	31.0	31.0	31.0	95	29.7	0	0	---	0.00	30.263 
01:10	31.0	31.0	31.0	96	30.0	0	0	---	0.00	30.258 
01:15	31.0	31.0	31.0	96	30.0	0	0	---	0.00	30.263 
01:20	31.2	31.2	31.2	96	30.2	0	0	---	0.00	30.267 
01:25	31.2	31.2	31.2	96	30.2	0	0	---	0.00	30.268 
01:30	31.3	31.3	31.3	96	30.3	0	0	---	0.00	30.271 
01:35	31.3	31.3	31.3	96	30.3	0	0	---	0.00	30.275 
01:40	31.3	31.3	31.3	96	30.3	0	0	---	0.00	30.275 
01:45	31.3	31.3	31.3	96	30.3	0	0	---	0.00	30.266 
01:50	31.3	31.3	31.3	96	30.3	0	0	---	0.00	30.260 
01:55	31.3	31.3	31.3	96	30.3	0	0	---	0.00	30.252 
02:00	31.3	31.3	31.3	96	30.3	0	0	---	0.00	30.255 
02:05	31.3	31.3	31.3	96	30.3	0	0	---	0.00	30.265 
02:10	31.5	31.5	31.5	96	30.5	0	0	---	0.00	30.254 
02:15	31.5	31.5	31.5	96	30.5	0	0	---	0.00	30.262 
02:20	31.5	31.5	31.5	96	30.5	0	0	---	0.00	30.254 
02:25	31.5	31.5	31.5	96	30.5	0	0	---	0.00	30.250 
02:30	31.5	31.5	31.5	96	30.5	0	0	---	0.00	30.263 
02:35	31.5	31.5	31.5	96	30.5	0	0	---	0.00	30.258 
02:40	31.5	31.5	31.5	96	30.5	0	0	---	0.00	30.255 
02:45	31.5	31.5	31.5	96	30.5	0	0	---	0.00	30.266 
02:50	31.5	31.5	31.5	96	30.5	0	0	---	0.00	30.268 
02:55	31.6	31.6	31.6	96	30.6	0	0	---	0.00	30.253 
03:00	31.6	31.6	31.6	96	30.6	0	0	---	0.00	30.252 
03:05	31.6	31.6	31.6	96	30.6	0	0	---	0.00	30.250 
03:10	31.6	31.6	31.6	96	30.6	0	0	---	0.00	30.235 
03:15	31.6	31.6	31.6	96	30.6	0	0	---	0.00	30.234 
03:20	31.6	31.6	31.6	96	30.6	0	0	---	0.00	30.240 
03:25	31.6	31.6	31.6	96	30.6	0	0	---	0.00	30.239 
03:30	31.6	31.6	31.6	96	30.6	0	0	---	0.00	30.245 
03:35	31.6	31.6	31.6	96	30.6	0	0	---	0.00	30.240 
03:40	31.6	31.6	31.6	96	30.6	0	0	---	0.00	30.230 
03:45	31.6	31.6	31.6	96	30.6	0	0	---	0.00	30.230 
03:50	31.6	31.6	31.6	96	30.6	0	0	---	0.00	30.234 
03:55	31.6	31.6	31.6	96	30.6	0	0	---	0.00	30.235 
04:00	31.6	31.6	31.6	96	30.6	0	0	---	0.00	30.232 
04:05	31.6	31.6	31.6	96	30.6	0	0	---	0.00	30.230 
04:10	31.6	31.6	31.6	96	30.6	0	0	---	0.00	30.222 
04:15	31.6	31.6	31.6	96	30.6	0	0	---	0.00	30.218 
04:20	31.6	31.6	31.6	96	30.6	0	0	---	0.00	30.220 
04:25	31.8	31.8	31.8	96	30.8	0	0	---	0.00	30.221 
04:30	31.8	31.8	31.8	96	30.8	0	0	---	0.00	30.219 
04:35	31.8	31.8	31.8	96	30.8	0	0	---	0.00	30.214 
04:40	31.8	31.8	31.8	96	30.8	0	0	---	0.00	30.226 
04:45	31.8	31.8	31.8	96	30.8	0	0	---	0.00	30.234 
04:50	31.8	31.8	31.8	96	30.8	0	0	---	0.00	30.218 
04:55	31.8	31.8	31.8	96	30.8	0	0	---	0.00	30.208 
05:00	31.8	31.8	31.8	96	30.8	0	0	---	0.00	30.190 
05:05	31.8	31.8	31.8	96	30.8	0	0	---	0.00	30.190 
05:10	31.8	31.8	31.8	96	30.8	0	0	---	0.00	30.185 
05:15	31.8	31.8	31.8	96	30.8	0	0	---	0.00	30.189 
05:20	31.8	31.8	31.8	96	30.8	0	0	---	0.00	30.199 
05:25	31.9	31.9	31.9	96	30.9	0	0	---	0.00	30.190 
05:30	31.9	31.9	31.9	96	30.9	0	0	---	0.00	30.187 
05:35	31.9	31.9	31.9	96	30.9	0	0	---	0.00	30.188 
05:40	31.9	31.9	31.9	96	30.9	0	0	---	0.00	30.184 
05:45	31.9	31.9	31.9	96	30.9	0	0	---	0.00	30.182 
05:50	31.9	31.9	31.9	97	31.1	0	0	---	0.00	30.187 
05:55	31.9	31.9	31.9	97	31.1	0	0	---	0.00	30.177 
06:00	31.9	31.9	31.9	96	30.9	0	0	---	0.00	30.174 
06:05	31.9	31.9	31.9	97	31.1	0	0	---	0.00	30.173 
06:10	31.9	31.9	31.9	97	31.1	0	0	---	0.00	30.175 
06:15	32.1	32.1	32.1	97	31.3	0	0	---	0.00	30.182 
06:20	32.1	32.1	32.1	97	31.3	0	0	---	0.00	30.184 
06:25	32.1	32.1	32.1	97	31.3	0	0	---	0.00	30.201 
06:30	32.1	32.1	32.1	97	31.3	0	0	---	0.00	30.214 
06:35	32.1	32.1	32.1	97	31.3	0	0	---	0.00	30.209 
06:40	32.1	32.1	32.1	97	31.3	0	0	---	0.00	30.210 
06:45	32.1	32.1	32.1	97	31.3	0	0	---	0.00	30.189 
06:50	32.1	32.1	32.1	97	31.3	0	0	---	0.00	30.181 
06:55	32.2	32.2	32.2	97	31.4	0	0	---	0.00	30.187 
07:00	32.2	32.2	32.2	97	31.4	0	0	---	0.00	30.177 
07:05	32.2	32.2	32.2	97	31.4	0	0	---	0.00	30.187 
07:10	32.2	32.2	32.2	97	31.4	0	0	---	0.00	30.185 
07:15	32.2	32.2	32.2	97	31.4	0	0	---	0.00	30.169 
07:20	32.2	32.2	32.2	97	31.4	0	0	---	0.00	30.161 
07:25	32.2	32.2	32.2	97	31.4	0	0	---	0.00	30.156 
07:30	32.2	32.2	32.2	97	31.4	0	0	---	0.00	30.163 
07:35	32.2	32.2	32.2	97	31.4	0	0	---	0.00	30.155 
07:40	32.2	32.2	32.2	97	31.4	0	0	---	0.00	30.164 
07:45	32.2	32.2	32.2	97	31.4	0	0	---	0.00	30.160 
07:50	32.4	32.4	32.4	97	31.6	0	0	---	0.00	30.159 
07:55	32.4	32.4	32.4	97	31.6	0	0	---	0.00	30.157 
08:00	32.4	32.4	32.4	97	31.6	0	0	---	0.00	30.158 
08:05	32.4	32.4	32.4	97	31.6	0	0	---	0.00	30.157 
08:10	32.4	32.4	32.4	97	31.6	0	0	---	0.00	30.152 
08:15	32.4	32.4	32.4	97	31.6	0	0	---	0.00	30.158 
08:20	32.4	32.4	32.4	97	31.6	0	0	---	0.00	30.172 
08:25	32.4	32.4	32.4	97	31.6	0	0	---	0.00	30.163 
08:30	32.4	32.4	32.4	97	31.6	0	0	---	0.00	30.171 
08:35	32.4	32.4	32.4	97	31.6	0	0	---	0.00	30.170 
08:40	32.4	32.4	32.4	97	31.6	0	0	---	0.00	30.161 
08:45	32.4	32.4	32.4	97	31.6	0	0	---	0.00	30.156 
08:50	32.4	32.4	32.4	97	31.6	0	0	---	0.00	30.162 
08:55	32.5	32.5	32.5	97	31.7	0	0	---	0.00	30.156 
09:00	32.5	32.5	32.5	97	31.7	0	0	---	0.00	30.152 
09:05	32.5	32.5	32.5	97	31.7	0	0	---	0.00	30.142 
09:10	32.5	32.5	32.5	97	31.7	0	0	---	0.00	30.141 
09:15	32.5	32.5	32.5	97	31.7	0	0	---	0.00	30.128 
09:20	32.5	32.5	32.5	97	31.7	0	0	---	0.00	30.137 
09:25	32.5	32.5	32.5	97	31.7	0	0	---	0.00	30.141 
09:30	32.5	32.5	32.5	97	31.7	0	0	---	0.00	30.128 
09:35	32.4	32.4	32.4	97	31.6	0	0	---	0.00	30.124 
09:40	32.4	32.4	32.4	97	31.6	0	0	---	0.00	30.124 
09:45	32.4	32.4	32.4	97	31.6	0	0	---	0.00	30.119 
09:50	32.5	32.5	32.5	97	31.7	0	0	---	0.00	30.125 
09:55	32.5	32.5	32.5	97	31.7	0	0	---	0.00	30.127 
10:00	32.5	32.5	32.5	97	31.7	0	0	---	0.00	30.151 
10:05	32.5	32.5	32.5	97	31.7	0	0	---	0.00	30.157 
10:10	32.5	32.5	32.5	97	31.7	0	0	---	0.00	30.157 
10:15	32.5	32.5	32.5	97	31.7	0	0	---	0.00	30.150 
10:20	32.5	32.5	32.5	97	31.7	0	0	---	0.00	30.142 
10:25	32.7	32.7	32.7	97	31.9	0	0	---	0.00	30.126 
10:30	32.7	32.7	32.7	97	31.9	0	0	---	0.00	30.125 
10:35	32.7	32.7	32.7	97	31.9	0	0	---	0.00	30.115 
10:40	32.7	32.7	32.7	97	31.9	0	0	---	0.00	30.126 
10:45	32.7	32.7	32.7	97	31.9	0	0	---	0.00	30.112 
10:50	32.7	32.7	32.7	97	31.9	0	0	---	0.00	30.109 
10:55	32.8	32.8	32.8	97	32.0	0	0	---	0.00	30.092 
11:00	32.8	32.8	32.8	97	32.0	0	0	---	0.00	30.082 
11:05	32.8	32.8	32.8	97	32.0	0	1	112	0.00	30.091 
11:10	32.8	32.8	32.8	97	32.0	0	0	---	0.00	30.079 
11:15	32.9	32.9	32.9	97	32.1	0	0	---	0.00	30.076 
11:20	32.9	32.9	32.9	97	32.1	0	0	---	0.00	30.067 
11:25	33.1	33.1	33.1	97	32.3	0	0	---	0.00	30.069 
11:30	33.1	33.1	33.1	97	32.3	0	1	112	0.00	30.062 
11:35	33.2	33.2	33.2	97	32.4	0	1	135	0.00	30.054 
11:40	33.2	33.2	33.2	97	32.4	3	11	90	0.00	30.032 
11:45	33.4	33.4	33.4	97	32.6	3	9	90	0.00	30.031 
11:50	33.5	29.8	33.5	97	32.7	4	9	90	0.00	30.025 
11:55	33.7	30.0	33.7	97	32.9	4	10	90	0.00	30.021 
12:00	33.7	30.0	33.7	97	32.9	4	9	90	0.00	30.015 
12:05	33.7	33.7	33.7	97	32.9	3	7	90	0.00	30.013 
12:10	33.8	30.2	33.8	97	33.0	4	11	90	0.00	30.011 
12:15	34.0	34.0	34.0	97	33.2	2	7	68	0.00	30.012 
12:20	34.1	34.1	34.1	97	33.3	1	4	90	0.00	30.012 
12:25	34.1	34.1	34.1	97	33.3	1	3	68	0.00	30.010 
12:30	34.1	34.1	34.1	97	33.3	0	1	112	0.00	30.023 
12:35	34.1	34.1	34.1	97	33.3	0	1	112	0.00	30.024 
12:40	34.3	34.3	34.3	97	33.5	2	5	112	0.00	30.011 
12:45	34.3	34.3	34.3	97	33.5	3	6	112	0.00	30.000 
12:50	34.3	34.3	34.3	97	33.5	2	6	112	0.00	29.997 
12:55	34.3	34.3	34.3	97	33.5	1	2	112	0.00	29.998 
13:00	34.4	34.4	34.4	97	33.6	1	3	112	0.00	29.996 
13:05	34.4	34.4	34.4	97	33.6	0	2	112	0.00	29.997 
13:10	34.6	34.6	34.6	97	33.8	0	1	112	0.00	30.017 
13:15	34.6	34.6	34.6	97	33.8	3	9	112	0.00	29.993 
13:20	34.4	34.4	34.4	97	33.6	1	5	22	0.00	29.993 
13:25	34.6	34.6	34.6	97	33.8	1	4	112	0.00	29.983 
13:30	34.9	34.9	34.9	97	34.1	1	2	112	0.00	29.979 
13:35	35.0	35.0	35.0	97	34.2	2	7	112	0.00	29.979 
13:40	34.9	34.9	34.9	97	34.1	1	4	248	0.00	29.978 
13:45	34.9	34.9	34.9	97	34.1	1	5	112	0.00	29.978 
13:50	34.9	34.9	34.9	97	34.1	1	6	112	0.00	29.977 
13:55	34.9	34.9	34.9	97	34.1	2	5	248	0.00	29.986 
14:00	35.0	35.0	35.0	97	34.2	1	3	248	0.00	29.986 
14:05	34.9	34.9	34.9	97	34.1	1	4	68	0.00	29.978 
14:10	35.0	35.0	35.0	97	34.2	1	4	90	0.00	29.968 
14:15	35.3	35.3	35.3	97	34.5	1	3	90	0.00	29.972 
14:20	35.8	35.8	35.8	97	35.0	1	3	270	0.00	29.966 
14:25	36.2	36.2	36.2	97	35.4	1	5	248	0.00	29.963 
14:30	36.6	36.6	36.6	97	35.8	1	4	248	0.00	29.961 
14:35	37.0	37.0	37.0	97	36.2	1	4	248	0.00	29.960 
14:40	37.9	37.9	37.9	98	37.4	1	6	248	0.00	29.959 
14:45	38.5	38.5	38.5	98	38.0	1	4	248	0.00	29.962 
14:50	38.3	38.3	38.3	98	37.8	2	6	248	0.00	29.961 
14:55	38.2	38.2	38.2	98	37.7	1	3	248	0.00	29.962 
15:00	37.9	37.9	37.9	98	37.4	1	4	248	0.00	29.960 
15:05	37.8	37.8	37.8	98	37.3	1	4	248	0.00	29.962 
15:10	37.6	37.6	37.6	97	36.8	1	4	248	0.00	29.959 
15:15	37.6	37.6	37.6	97	36.8	1	2	248	0.00	29.963 
15:20	37.6	37.6	37.6	97	36.8	1	3	248	0.00	29.963 
15:25	37.8	37.8	37.8	97	37.0	0	2	248	0.00	29.959 
15:30	37.8	37.8	37.8	97	37.0	0	2	248	0.00	29.960 
15:35	38.0	38.0	38.0	98	37.5	0	2	248	0.00	29.964 
15:40	38.3	38.3	38.3	98	37.8	1	3	248	0.00	29.966 
15:45	38.5	38.5	38.5	98	38.0	1	2	248	0.00	29.968 
15:50	38.6	38.6	38.6	98	38.1	1	2	248	0.00	29.973 
15:55	38.6	38.6	38.6	98	38.1	0	2	248	0.00	29.967 
16:00	38.5	38.5	38.5	98	38.0	1	2	248	0.00	29.970 
16:05	38.6	38.6	38.6	98	38.1	1	4	248	0.00	29.972 
16:10	38.6	38.6	38.6	98	38.1	1	4	248	0.00	29.970 
16:15	38.8	38.8	38.8	98	38.3	2	5	248	0.00	29.977 
16:20	38.8	38.8	38.8	98	38.3	0	2	248	0.00	29.971 
16:25	38.8	38.8	38.8	98	38.3	2	4	248	0.00	29.979 
16:30	38.8	38.8	38.8	98	38.3	1	4	248	0.00	29.974 
16:35	38.8	38.8	38.8	98	38.3	1	3	248	0.00	29.977 
16:40	38.8	38.8	38.8	98	38.3	1	4	248	0.00	29.984 
16:45	38.8	38.8	38.8	98	38.3	1	4	248	0.00	29.991 
16:50	38.8	38.8	38.8	98	38.3	0	3	248	0.00	29.980 
16:55	38.8	38.8	38.8	98	38.3	0	3	248	0.00	29.984 
17:00	38.8	38.8	38.8	98	38.3	0	2	248	0.00	29.985 
17:05	38.8	38.8	38.8	98	38.3	0	1	248	0.00	29.976 
17:10	39.1	39.1	39.1	98	38.6	0	2	338	0.00	29.974 
17:15	39.1	39.1	39.1	98	38.6	1	3	248	0.00	29.988 
17:20	39.1	39.1	39.1	98	38.6	2	5	248	0.00	29.990 
17:25	38.9	38.9	38.9	98	38.4	1	3	248	0.00	29.988 
17:30	38.8	38.8	38.8	98	38.3	0	3	248	0.00	29.991 
17:35	38.6	38.6	38.6	98	38.1	1	4	248	0.00	29.993 
17:40	38.6	38.6	38.6	98	38.1	1	3	248	0.00	29.990 
17:45	38.5	38.5	38.5	98	38.0	0	1	248	0.00	29.973 
17:50	38.5	38.5	38.5	98	38.0	0	3	248	0.00	29.987 
17:55	38.3	38.3	38.3	98	37.8	0	2	248	0.00	29.989 
18:00	38.3	38.3	38.3	98	37.8	0	1	248	0.00	29.987 
18:05	38.3	38.3	38.3	98	37.8	1	2	248	0.00	30.004 
18:10	38.2	38.2	38.2	98	37.7	1	2	248	0.00	30.011 
18:15	38.2	38.2	38.2	98	37.7	0	2	248	0.00	29.992 
18:20	38.2	38.2	38.2	98	37.7	1	2	248	0.00	29.992 
18:25	38.2	38.2	38.2	98	37.7	1	3	270	0.00	29.990 
18:30	38.0	38.0	38.0	98	37.5	1	3	270	0.00	29.996 
18:35	38.0	38.0	38.0	98	37.5	1	3	270	0.00	29.987 
18:40	38.0	38.0	38.0	98	37.5	1	4	270	0.00	29.987 
18:45	37.9	37.9	37.9	98	37.4	1	3	248	0.00	29.979 
18:50	37.9	37.9	37.9	98	37.4	1	4	338	0.00	29.979 
18:55	37.9	37.9	37.9	98	37.4	1	4	315	0.00	29.979 
19:00	37.9	37.9	37.9	98	37.4	1	5	270	0.00	29.965 
19:05	37.9	37.9	37.9	98	37.4	1	2	315	0.00	29.973 
19:10	37.9	37.9	37.9	98	37.4	1	2	292	0.00	29.975 
19:15	37.8	37.8	37.8	98	37.3	1	3	292	0.00	29.984 
19:20	37.8	37.8	37.8	98	37.3	1	4	338	0.00	29.987 
19:25	37.6	37.6	37.6	98	37.1	1	2	338	0.00	29.980 
19:30	37.6	37.6	37.6	98	37.1	0	2	315	0.00	29.980 
19:35	37.6	37.6	37.6	98	37.1	1	3	315	0.00	29.975 
19:40	37.5	37.5	37.5	98	37.0	0	3	292	0.00	29.975 
19:45	37.5	37.5	37.5	98	37.0	0	2	0	0.00	29.975 
19:50	37.3	37.3	37.3	98	36.8	1	3	248	0.00	29.973 
19:55	37.3	37.3	37.3	98	36.8	0	2	292	0.00	29.977 
20:00	37.2	37.2	37.2	97	36.4	1	2	315	0.00	29.980 
20:05	37.0	37.0	37.0	97	36.2	1	3	315	0.00	29.979 
20:10	36.9	36.9	36.9	97	36.1	1	2	292	0.00	29.982 
20:15	36.8	36.8	36.8	97	36.0	1	4	292	0.00	29.990 
20:20	36.8	36.8	36.8	97	36.0	2	7	292	0.00	29.990 
20:25	36.6	36.6	36.6	97	35.8	1	5	292	0.00	29.992 
20:30	36.5	36.5	36.5	97	35.7	2	5	292	0.00	29.992 
20:35	36.3	36.3	36.3	97	35.5	2	9	270	0.00	29.988 
20:40	36.0	36.0	36.0	97	35.2	2	6	292	0.00	29.983 
20:45	36.0	36.0	36.0	97	35.2	0	3	338	0.00	29.984 
20:50	35.9	35.9	35.9	97	35.1	1	3	292	0.00	29.991 
20:55	35.9	35.9	35.9	97	35.1	1	4	270	0.00	29.988 
21:00	35.8	35.8	35.8	97	35.0	0	2	22	0.00	29.993 
21:05	35.8	35.8	35.8	97	35.0	0	3	0	0.00	29.980 
21:10	35.8	35.8	35.8	97	35.0	0	2	0	0.00	29.980 
21:15	35.6	35.6	35.6	97	34.8	1	2	292	0.00	29.990 
21:20	35.6	35.6	35.6	97	34.8	0	4	292	0.00	29.993 
21:25	35.6	35.6	35.6	97	34.8	0	4	270	0.00	29.980 
21:30	35.5	35.5	35.5	97	34.7	1	2	270	0.00	29.977 
21:35	35.5	35.5	35.5	97	34.7	1	3	292	0.00	29.982 
21:40	35.3	35.3	35.3	97	34.5	0	3	292	0.00	29.982 
21:45	35.3	35.3	35.3	97	34.5	0	1	292	0.00	29.986 
21:50	35.3	35.3	35.3	97	34.5	1	3	270	0.00	29.992 
21:55	35.3	35.3	35.3	97	34.5	0	1	270	0.00	29.992 
22:00	35.3	35.3	35.3	97	34.5	1	3	270	0.00	29.993 
22:05	35.3	35.3	35.3	97	34.5	0	2	270	0.00	29.999 
22:10	35.3	35.3	35.3	97	34.5	1	3	270	0.00	30.000 
22:15	35.3	35.3	35.3	97	34.5	0	2	270	0.00	30.003 
22:20	35.3	35.3	35.3	97	34.5	0	2	270	0.00	30.005 
22:25	35.3	35.3	35.3	97	34.5	0	2	270	0.00	30.003 
22:30	35.3	35.3	35.3	97	34.5	1	3	270	0.00	30.006 
22:35	35.3	35.3	35.3	97	34.5	0	2	270	0.00	30.008 
22:40	35.3	35.3	35.3	97	34.5	1	3	270	0.00	30.007 
22:45	35.3	35.3	35.3	97	34.5	0	2	292	0.01	30.007 
22:50	35.3	35.3	35.3	96	34.3	1	4	270	0.00	30.016 
22:55	35.3	35.3	35.3	96	34.3	0	3	270	0.00	30.024 
23:00	35.3	35.3	35.3	96	34.3	0	1	292	0.01	30.022 
23:05	35.3	35.3	35.3	96	34.3	0	2	292	0.01	30.009 
23:10	35.2	35.2	35.2	96	34.2	0	1	292	0.00	30.001 
23:15	35.2	35.2	35.2	96	34.2	0	1	292	0.00	30.015 
23:20	35.2	35.2	35.2	96	34.2	0	2	292	0.01	30.023 
23:25	35.2	35.2	35.2	96	34.2	0	1	292	0.00	30.024 
23:30	35.2	35.2	35.2	96	34.2	0	2	292	0.01	30.020 
23:35	35.2	35.2	35.2	96	34.2	0	1	292	0.00	30.013 
23:40	35.2	35.2	35.2	96	34.2	0	0	---	0.01	30.011 
23:45	35.2	35.2	35.2	96	34.2	0	1	292	0.00	30.013 
23:50	35.2	35.2	35.2	96	34.2	0	1	292	0.00	30.023 
23:55	35.2	35.2	35.2	96	34.2	0	1	292	0.00	30.032 

CoCoRaHS
IN-AL-39
A2 Web Hosting
Creative Commons License
GoDaddy
Look for:

loaded 2017-12-13 09:44:51 • last modified 2010-11-18 10:43:29
Privacy PolicyDisclaimer
• wx.awcolley.com is powered by PmWiki v.2002016 •
• all content (unless otherwise noted) © 2017 A W Colley